Regional Weather Roundup
Issued by NWS Grand Forks, ND

Home | Current Version | Previous Version | Graphics & Text | Print | Product List | Glossary On
Versions: 1 2 3 4 5 6 7 8 9 10 11 12 13 14 15 16 17 18 19 20 21 22 23 24 25 26 27 28 29 30 31 32 33 34 35 36 37 38 39 40 41 42 43 44 45 46 47 48 49 50
000
ASUS43 KFGF 231231
RWRFGF
PRAIRIE TO PINES  WEATHER ROUNDUP
NATIONAL WEATHER SERVICE EASTERN NORTH DAKOTA/GRAND FORKS ND
700 AM CDT WED APR 23 2014

 **SATELLITE DATA USED TO AUGMENT SKY COVER AT AUTOMATED STATIONS**
 *****  WEATHER ACROSS EASTERN NORTH DAKOTA  *****

CITY           SKY/WX    TMP DP  RH WIND       PRES   REMARKS
GRAND FORKS    CLOUDY    44  28  53 SE17      29.91F
6HR MIN TEMP:  41; 6HR MAX TEMP:  47;

GRAND FRKS AFB CLOUDY    42  29  60 SE14      29.91S
GRAND FRKS NWS   N/A     45 N/A N/A SE14        N/A
DEVILS LAKE    CLOUDY    43  28  56 SE22      29.79F
6HR MIN TEMP:  43; 6HR MAX TEMP:  45;

FARGO          CLOUDY    48  30  49 SE16      29.92S
WAHPETON ARPT  CLOUDY    41  36  81 SE17G23   29.94S
$$

 ***** WEATHER ACROSS CENTRAL AND WESTERN NORTH DAKOTA  *****

CITY           SKY/WX    TMP DP  RH WIND       PRES   REMARKS
BISMARCK       CLOUDY    51  38  60 E23G32    29.60F
6HR MIN TEMP:  50; 6HR MAX TEMP:  57; 6HR PCP:  0.03;

MINOT          LGT RAIN  45  41  86 E15G24    29.63F
6HR MIN TEMP:  44; 6HR MAX TEMP:  48; 6HR PCP:  0.07;

JAMESTOWN      CLOUDY    44  43  96 SE24G30   29.77F
6HR MIN TEMP:  44; 6HR MAX TEMP:  50; 6HR PCP:  0.21;

MINOT AFB      CLOUDY    44  43  99 SE21G28   29.63F
GARRISON         N/A     48  50 100 SE23      29.59F
WILLISTON      CLOUDY    51  38  60 SE24G37   29.43R
6HR MIN TEMP:  51; 6HR MAX TEMP:  54;

DICKINSON      MOCLDY    47  34  60 E28G35    29.41F
6HR MIN TEMP:  47; 6HR MAX TEMP:  54; 6HR PCP: TRACE;

HETTINGER      CLOUDY    50  36  58 SE18G28   29.44S
6HR MIN TEMP:  49; 6HR MAX TEMP:  53;

$$

 *****  OTHER AIRPORT OBSERVATIONS IN OUR AREA  *****

CITY           SKY/WX    TMP DP  RH WIND       PRES   REMARKS
WALHALLA       FAIR      36  32  87 SE5       29.92S
GRAFTON AIRPOR FAIR      39  28  65 SE15      29.92S
VALLEY CITY AR CLOUDY    41  41 100 S17G24    29.84S
CANDO          CLOUDY    43  32  65 SE21G28   29.80S
CAVALIER APRT  FAIR      36  30  80 SE6       29.92S
GWINNER        CLOUDY    45  45 100 SE23G32   29.86F
ROLLA          PTSUNNY   41  32  70 SE21G26   29.79F
 ***** THE ABOVE OBSERVATIONS ARE NON NWS ARE NOT QUALITY
       CONTROLLED AND MAY MIS-REPORT RAIN FOR SNOW...
$$

  *****  WEATHER ACROSS NORTHERN MINNESOTA  *****

CITY           SKY/WX    TMP DP  RH WIND       PRES   REMARKS
FLAG ISLAND    CLEAR     36  21  55 SE7       30.04S
WARROAD        PTCLDY    39  27  60 SE9       30.04R
ROSEAU         PTCLDY    39  25  56 SE10      30.01F
HALLOCK        CLOUDY    43  25  49 SE14      29.94F
THF RVR FALLS  CLOUDY    37  25  60 E12       29.97F
6HR MIN TEMP:  36; 6HR MAX TEMP:  41;

BAUDETTE       CLEAR     33  23  66 SE6       30.05S
6HR MIN TEMP:  31; 6HR MAX TEMP:  36;

WASKISH        MOCLDY    34  23  64 E5        30.05S
CROOKSTON      CLOUDY    45  28  53 SE13      29.95S
$$
  *****  WEATHER ACROSS CENTRAL AND WEST MINNESOTA  *****

CITY           SKY/WX    TMP DP  RH WIND       PRES   REMARKS
FOSSTON        CLOUDY    43  21  42 SE12      29.97F
BEMIDJI        CLOUDY    34  23  66 SE5       30.02S
PARK RAPIDS    CLOUDY    40  24  53 SE10      30.00F
6HR MIN TEMP:  36; 6HR MAX TEMP:  40;

ELBOW LAKE     LGT RAIN  41  36  81 SE16G24   29.96S
6HR MIN TEMP:  41; 6HR MAX TEMP:  48;

WADENA         CLOUDY    43  27  52 SE13      29.99F
DETROIT LAKES  CLOUDY    43  28  56 SE13      29.96F
MOORHEAD       CLOUDY    46  34  61 S13       29.94R
FERGUS FALLS   CLOUDY    46  28  49 S18G25    29.94R
MORRIS MN      LGT RAIN  41  37  87 SE23      29.95R
STAPLES        CLOUDY    43  25  49 SE9       30.02S
$$
  *****  WEATHER ELSEWHERE ACROSS MINNESOTA  *****

CITY           SKY/WX    TMP DP  RH WIND       PRES   REMARKS
DULUTH         MOCLDY    32  24  72 SE5       30.11R
6HR MIN TEMP:  30; 6HR MAX TEMP:  37;

INTRNTL FALLS  CLEAR     28  22  78 SE7       30.08S WCI  21
6HR MIN TEMP:  24; 6HR MAX TEMP:  29;

ELY            CLEAR     25  21  86 CALM      30.12S
CLOQUET        MOCLDY    30  25  80 CALM      30.11S
WHEATON        LGT RAIN  45  43  93 SE21      29.96R
BRAINERD       CLOUDY    40  25  55 SE3       30.05F
6HR MIN TEMP:  33; 6HR MAX TEMP:  42;

HIBBING        MOCLDY    28  23  81 CALM      30.10S
6HR MIN TEMP:  22; 6HR MAX TEMP:  28;

ALEXANDRIA     CLOUDY    43  29  57 SE14      29.99F
6HR MIN TEMP:  43; 6HR MAX TEMP:  46;

SAINT CLOUD    CLOUDY    44  26  49 SE8       30.06S
6HR MIN TEMP:  40; 6HR MAX TEMP:  45;

MINNEAPOLIS    CLOUDY    42  27  55 SE13      30.10R
6HR MIN TEMP:  42; 6HR MAX TEMP:  46;

$$

  *****  WEATHER ACROSS SOUTH DAKOTA  *****

CITY           SKY/WX    TMP DP  RH WIND       PRES   REMARKS
SIOUX FALLS    CLOUDY    49  37  63 SE26G36   29.85F
6HR MIN TEMP:  49; 6HR MAX TEMP:  55; 6HR PCP: TRACE;

BROOKINGS      NOT AVBL
WATERTOWN      CLOUDY    46  37  71 E14G23    29.85R
6HR MIN TEMP:  46; 6HR MAX TEMP:  52; 6HR PCP: TRACE;

HURON          CLOUDY    52  34  50 SE18G32   29.73R
6HR MIN TEMP:  52; 6HR MAX TEMP:  58; 6HR PCP: TRACE;

SISSETON         N/A     43  39  86 SE18      29.89S
ABERDEEN       CLOUDY    50  36  58 SE23G33   29.78R
6HR MIN TEMP:  49; 6HR MAX TEMP:  52; 6HR PCP: TRACE;

MITCHELL       MOCLDY    51  36  56 SE25G43   29.74F
PIERRE         CLOUDY    53  34  48 SE25G33   29.54F
6HR MIN TEMP:  53; 6HR MAX TEMP:  59; 6HR PCP: TRACE;

MOBRIDGE       CLOUDY    50  39  66 SE17      29.56F
RAPID CITY     CLOUDY    56  42  59 S7        29.44F
6HR MIN TEMP:  51; 6HR MAX TEMP:  59;

$$

  *****  SOME WEATHER IN NEARBY STATES *****

CITY           SKY/WX    TMP DP  RH WIND       PRES   REMARKS
GLASGOW MT     MOCLDY    49  33  54 W5        29.39R
6HR MIN TEMP:  49; 6HR MAX TEMP:  57;

GREAT FALLS MT CLOUDY    37  29  72 SW17      29.60R
6HR MIN TEMP:  37; 6HR MAX TEMP:  42; 6HR PCP:  0.14;

CHEYENNE WY    MOCLDY    51  32  48 W14       29.62R
6HR MIN TEMP:  49; 6HR MAX TEMP:  55;

SCOTTSBLUFF NE CLOUDY    53  44  71 CALM      29.53R
6HR MIN TEMP:  51; 6HR MAX TEMP:  58;

OMAHA NE       CLOUDY    54  33  45 SE16      29.95R
6HR MIN TEMP:  53; 6HR MAX TEMP:  58;

DES MOINES IA  CLOUDY    50  31  48 SE10      30.06R
6HR MIN TEMP:  50; 6HR MAX TEMP:  55;

DAVENPORT IA   PTCLDY    38  30  73 E7        30.17R
6HR MIN TEMP:  34; 6HR MAX TEMP:  44;

CHICAGO IL     MOSUNNY   36  27  69 NE6       30.16R
6HR MIN TEMP:  33; 6HR MAX TEMP:  39;

EAU CLAIRE WI  MOCLDY    37  27  67 E6        30.13S
6HR MIN TEMP:  29; 6HR MAX TEMP:  37;

LA CROSSE WI   PTCLDY    38  28  67 SE6       30.15R
6HR MIN TEMP:  35; 6HR MAX TEMP:  43;

$$

  *****  SOME NATIONAL WEATHER *****

CITY           SKY/WX    TMP DP  RH WIND       PRES   REMARKS
LA GUARDIA NY  PTSUNNY   50  33  52 NW18G31   29.57R
6HR MIN TEMP:  50; 6HR MAX TEMP:  61;

RALEIGH NC     MOSUNNY   59  38  45 VRB6      29.81R
6HR MIN TEMP:  56; 6HR MAX TEMP:  62;

ATLANTA GA     SUNNY     57  48  72 NW12      29.93R
6HR MIN TEMP:  56; 6HR MAX TEMP:  61;

NEW ORLEANS LA CLEAR     62  62 100 NW3       29.97R
6HR MIN TEMP:  61; 6HR MAX TEMP:  67;

OKLAHOMA CITY  PTCLDY    51  40  65 SE10      29.89R
6HR MIN TEMP:  49; 6HR MAX TEMP:  57;

ALBUQUERQUE NM PTCLDY    60  27  28 W6        29.86R
6HR MIN TEMP:  58; 6HR MAX TEMP:  67;

SALT LAKE CITY MOCLDY    40  39  97 NW7       29.94R
6HR MIN TEMP:  40; 6HR MAX TEMP:  42; 6HR PCP:  0.08;

LOS ANGELES CA PTCLDY    57  50  77 VRB5      29.92F
6HR MIN TEMP:  56; 6HR MAX TEMP:  60;

BOISE ID       MOCLDY    34  27  75 SE3       29.98R



USA.gov is the U.S. government's official web portal to all federal, state and local government web resources and services.